Location: Unspecified
(0.0000°N, 0.0000°E)
Time: 18:01:34
(UTC+00:00)

Vanguard 2 - Pass Details

Date: 17 April 2026
Orbit: 553 x 2895 km, 32.9° (Epoch: 17 May)

Event Time Altitude Azimuth Distance (km) Brightness Sun altitude
Rises 05:16:56 0° 224° (SW) 6,208 11.7 -10.5°
Reaches altitude 10° 05:22:04 10° 216° (SW) 4,859 11.2 -9.2°
Maximum altitude 05:33:19 35° 155° (SSE) 2,435 10.2 -6.5°
Drops below altitude 10° 05:40:35 10° 92° (E) 3,138 12.4 -4.7°
Sets 05:43:08 0° 82° (E) 3,828 14.3 -4.1°
